Location: Unspecified
(49.8670°N, 0.0000°E)
Time: 06:41:25
(UTC+00:00)

Courier 1B Rocket - Pass Details

Date: 25 June 2019
Orbit: 920 x 1202 km, 28.2° (Epoch: 16 July)

Event Time Altitude Azimuth Distance (km) Brightness Sun altitude
Rises 04:29:11 0° 225° (SW) 3,857 7.5 4.0°
Reaches altitude 10° 04:35:03 10° 188° (S) 2,811 7.1 4.8°
Maximum altitude 04:36:08 10° 178° (S) 2,765 7.1 4.9°
Drops below altitude 10° 04:37:12 10° 169° (S) 2,779 7.2 5.1°
Sets 04:42:46 0° 131° (SE) 3,649 8.3 5.8°
